Time,TemperatureF,DewpointF,PressureIn,WindDirection,WindDirectionDegrees,WindSpeedMPH,WindSpeedGustMPH,Humidity,HourlyPrecipIn,Conditions,Clouds,dailyrainin,SoftwareType,DateUTC
2013-01-16 00:03:00,28.4,17.8,30.34,South,180,1.3,6.3,64,0.00,,,0.00,WUHU216HW,2013-01-16 08:03:00,
2013-01-16 00:08:00,28.8,18.2,30.34,SSE,158,3.4,5.4,64,0.00,,,0.00,WUHU216HW,2013-01-16 08:08:00,
2013-01-16 00:13:00,29.0,18.3,30.34,SSE,158,2.0,6.3,64,0.00,,,0.00,WUHU216HW,2013-01-16 08:13:00,
2013-01-16 00:18:00,29.3,18.6,30.33,ESE,113,3.4,6.3,64,0.00,,,0.00,WUHU216HW,2013-01-16 08:18:00,
2013-01-16 00:23:00,29.9,19.4,30.33,SSE,158,2.0,6.0,65,0.00,,,0.00,WUHU216HW,2013-01-16 08:23:00,
2013-01-16 00:28:00,30.2,19.8,30.33,SSE,158,1.8,5.4,65,0.00,,,0.00,WUHU216HW,2013-01-16 08:28:00,
2013-01-16 00:33:00,30.6,19.8,30.33,ESE,113,4.0,5.4,64,0.00,,,0.00,WUHU216HW,2013-01-16 08:33:00,
2013-01-16 00:38:00,31.0,20.2,30.32,SE,135,2.5,5.1,64,0.00,,,0.00,WUHU216HW,2013-01-16 08:38:00,
2013-01-16 00:43:00,30.8,19.6,30.33,East,90,2.9,5.1,63,0.00,,,0.00,WUHU216HW,2013-01-16 08:43:00,
2013-01-16 00:48:00,30.8,19.6,30.33,ESE,113,1.8,4.7,63,0.00,,,0.00,WUHU216HW,2013-01-16 08:48:00,
2013-01-16 00:53:00,30.8,19.6,30.33,ESE,113,1.6,4.7,63,0.00,,,0.00,WUHU216HW,2013-01-16 08:53:00,
2013-01-16 00:58:00,30.6,19.4,30.33,SSW,203,1.8,4.0,63,0.00,,,0.00,WUHU216HW,2013-01-16 08:58:00,
2013-01-16 01:03:00,30.4,19.3,30.33,South,180,0.7,2.7,63,0.00,,,0.00,WUHU216HW,2013-01-16 09:03:00,
2013-01-16 01:08:00,30.2,19.1,30.33,South,180,1.3,2.2,63,0.00,,,0.00,WUHU216HW,2013-01-16 09:08:00,
2013-01-16 01:13:00,30.1,19.3,30.33,SSE,158,1.8,4.3,64,0.00,,,0.00,WUHU216HW,2013-01-16 09:13:00,
2013-01-16 01:18:00,30.1,19.3,30.33,East,90,2.0,4.3,64,0.00,,,0.00,WUHU216HW,2013-01-16 09:18:00,
2013-01-16 01:23:00,30.1,19.3,30.33,SSW,203,1.8,3.6,64,0.00,,,0.00,WUHU216HW,2013-01-16 09:23:00,
2013-01-16 01:28:00,30.1,19.3,30.33,SE,135,1.8,3.6,64,0.00,,,0.00,WUHU216HW,2013-01-16 09:28:00,
2013-01-16 01:33:00,30.1,19.3,30.33,SE,135,1.8,2.5,64,0.00,,,0.00,WUHU216HW,2013-01-16 09:33:00,
2013-01-16 01:38:00,29.9,19.1,30.33,South,180,2.5,3.4,64,0.00,,,0.00,WUHU216HW,2013-01-16 09:38:00,
2013-01-16 01:43:00,29.9,19.1,30.33,SSE,158,2.7,3.4,64,0.00,,,0.00,WUHU216HW,2013-01-16 09:43:00,
2013-01-16 01:48:00,29.9,19.4,30.33,SSE,158,2.7,2.7,65,0.00,,,0.00,WUHU216HW,2013-01-16 09:48:00,
2013-01-16 01:53:00,29.9,19.4,30.32,SE,135,1.6,2.9,65,0.00,,,0.00,WUHU216HW,2013-01-16 09:53:00,
2013-01-16 01:58:00,29.9,19.4,30.32,South,180,1.3,2.9,65,0.00,,,0.00,WUHU216HW,2013-01-16 09:58:00,
2013-01-16 02:03:00,29.9,19.4,30.32,SE,135,1.1,2.5,65,0.00,,,0.00,WUHU216HW,2013-01-16 10:03:00,
2013-01-16 02:08:00,29.9,19.4,30.32,SE,135,1.1,2.0,65,0.00,,,0.00,WUHU216HW,2013-01-16 10:08:00,
2013-01-16 02:13:00,29.9,19.1,30.32,SE,135,1.1,1.8,64,0.00,,,0.00,WUHU216HW,2013-01-16 10:13:00,
2013-01-16 02:18:00,29.9,19.4,30.32,SSE,158,0.9,1.8,65,0.00,,,0.00,WUHU216HW,2013-01-16 10:18:00,
2013-01-16 02:23:00,29.9,19.1,30.32,South,180,1.1,1.8,64,0.00,,,0.00,WUHU216HW,2013-01-16 10:23:00,
2013-01-16 02:28:00,29.9,19.1,30.32,South,180,1.6,1.8,64,0.00,,,0.00,WUHU216HW,2013-01-16 10:28:00,
2013-01-16 02:33:00,29.9,19.4,30.32,SE,135,1.1,1.8,65,0.00,,,0.00,WUHU216HW,2013-01-16 10:33:00,
2013-01-16 02:38:00,29.7,19.4,30.32,South,180,1.6,3.4,65,0.00,,,0.00,WUHU216HW,2013-01-16 10:38:00,
2013-01-16 02:43:00,29.7,19.4,30.32,SSE,158,1.1,3.4,65,0.00,,,0.00,WUHU216HW,2013-01-16 10:43:00,
2013-01-16 02:48:00,29.5,19.2,30.32,SE,135,1.1,2.5,65,0.00,,,0.00,WUHU216HW,2013-01-16 10:48:00,
2013-01-16 02:53:00,29.5,19.2,30.31,SSE,158,0.7,2.5,65,0.00,,,0.00,WUHU216HW,2013-01-16 10:53:00,
2013-01-16 02:58:00,29.5,19.2,30.32,SSE,158,0.4,1.8,65,0.00,,,0.00,WUHU216HW,2013-01-16 10:58:00,
2013-01-16 03:03:00,29.5,19.2,30.31,SSE,158,1.1,1.3,65,0.00,,,0.00,WUHU216HW,2013-01-16 11:03:00,
2013-01-16 03:08:00,29.5,19.2,30.31,SE,135,1.1,1.8,65,0.00,,,0.00,WUHU216HW,2013-01-16 11:08:00,
2013-01-16 03:13:00,29.5,19.2,30.31,South,180,3.8,3.8,65,0.00,,,0.00,WUHU216HW,2013-01-16 11:13:00,
2013-01-16 03:18:00,29.5,19.2,30.31,SSE,158,1.8,6.3,65,0.00,,,0.00,WUHU216HW,2013-01-16 11:18:00,
2013-01-16 03:23:00,29.7,19.4,30.31,SSW,203,2.2,6.3,65,0.00,,,0.00,WUHU216HW,2013-01-16 11:23:00,
2013-01-16 03:28:00,29.7,19.4,30.31,SSE,158,1.1,2.9,65,0.00,,,0.00,WUHU216HW,2013-01-16 11:28:00,
2013-01-16 03:33:00,29.7,19.4,30.31,SSE,158,0.9,2.9,65,0.00,,,0.00,WUHU216HW,2013-01-16 11:33:00,
2013-01-16 03:38:00,29.5,19.2,30.31,SE,135,1.3,2.5,65,0.00,,,0.00,WUHU216HW,2013-01-16 11:38:00,
2013-01-16 03:43:00,29.5,19.2,30.31,SSE,158,1.1,3.8,65,0.00,,,0.00,WUHU216HW,2013-01-16 11:43:00,
2013-01-16 03:48:00,29.5,19.2,30.31,SE,135,0.4,3.8,65,0.00,,,0.00,WUHU216HW,2013-01-16 11:48:00,
2013-01-16 03:53:00,29.5,19.2,30.31,SE,135,0.4,1.8,65,0.00,,,0.00,WUHU216HW,2013-01-16 11:53:00,
2013-01-16 03:58:00,29.3,19.0,30.31,SE,135,0.4,3.6,65,0.00,,,0.00,WUHU216HW,2013-01-16 11:58:00,
2013-01-16 04:03:00,29.3,19.0,30.31,ESE,113,0.4,3.6,65,0.00,,,0.00,WUHU216HW,2013-01-16 12:03:00,
2013-01-16 04:08:00,29.3,19.0,30.31,SE,135,1.1,1.6,65,0.00,,,0.00,WUHU216HW,2013-01-16 12:08:00,
2013-01-16 04:13:00,29.2,18.5,30.31,SE,135,0.4,1.6,64,0.00,,,0.00,WUHU216HW,2013-01-16 12:13:00,
2013-01-16 04:18:00,29.2,18.5,30.31,South,180,0.0,1.1,64,0.00,,,0.00,WUHU216HW,2013-01-16 12:18:00,
2013-01-16 04:23:00,29.2,18.5,30.31,East,90,0.7,1.3,64,0.00,,,0.00,WUHU216HW,2013-01-16 12:23:00,
2013-01-16 04:28:00,29.2,18.1,30.31,East,90,0.4,1.8,63,0.00,,,0.00,WUHU216HW,2013-01-16 12:28:00,
2013-01-16 04:33:00,29.0,17.9,30.31,South,180,0.4,1.8,63,0.00,,,0.00,WUHU216HW,2013-01-16 12:33:00,
2013-01-16 04:38:00,28.8,17.8,30.31,South,180,0.0,1.1,63,0.00,,,0.00,WUHU216HW,2013-01-16 12:38:00,
2013-01-16 04:43:00,28.6,17.7,30.30,South,180,0.4,0.7,63,0.00,,,0.00,WUHU216HW,2013-01-16 12:43:00,
2013-01-16 04:48:00,28.4,17.5,30.30,East,90,0.0,2.5,63,0.00,,,0.00,WUHU216HW,2013-01-16 12:48:00,
2013-01-16 04:53:00,28.1,17.5,30.30,NE,45,1.1,4.3,64,0.00,,,0.00,WUHU216HW,2013-01-16 12:53:00,
2013-01-16 04:58:00,27.7,17.1,30.30,ESE,113,3.4,4.3,64,0.00,,,0.00,WUHU216HW,2013-01-16 12:58:00,
2013-01-16 05:03:00,27.7,17.1,30.30,South,180,0.0,3.4,64,0.00,,,0.00,WUHU216HW,2013-01-16 13:03:00,
2013-01-16 05:08:00,27.7,17.1,30.30,South,180,0.0,3.4,64,0.00,,,0.00,WUHU216HW,2013-01-16 13:08:00,
2013-01-16 05:13:00,27.7,17.5,30.30,SW,225,1.1,1.1,65,0.00,,,0.00,WUHU216HW,2013-01-16 13:13:00,
2013-01-16 05:18:00,27.5,16.9,30.31,SW,225,0.0,1.1,64,0.00,,,0.00,WUHU216HW,2013-01-16 13:18:00,
2013-01-16 05:23:00,27.5,17.3,30.31,East,90,0.0,1.1,65,0.00,,,0.00,WUHU216HW,2013-01-16 13:23:00,
2013-01-16 05:28:00,27.4,17.1,30.31,SSW,203,0.7,1.1,65,0.00,,,0.00,WUHU216HW,2013-01-16 13:28:00,
2013-01-16 05:33:00,27.2,16.6,30.31,SW,225,1.1,1.8,64,0.00,,,0.00,WUHU216HW,2013-01-16 13:33:00,
2013-01-16 05:38:00,27.0,16.7,30.30,SW,225,1.1,1.8,65,0.00,,,0.00,WUHU216HW,2013-01-16 13:38:00,
2013-01-16 05:43:00,26.8,16.6,30.31,SW,225,1.3,1.8,65,0.00,,,0.00,WUHU216HW,2013-01-16 13:43:00,
2013-01-16 05:48:00,26.6,16.4,30.31,SW,225,0.4,1.3,65,0.00,,,0.00,WUHU216HW,2013-01-16 13:48:00,
2013-01-16 05:53:00,26.5,16.2,30.30,South,180,0.4,2.2,65,0.00,,,0.00,WUHU216HW,2013-01-16 13:53:00,
2013-01-16 05:58:00,26.3,16.0,30.30,South,180,0.4,2.2,65,0.00,,,0.00,WUHU216HW,2013-01-16 13:58:00,
2013-01-16 06:03:00,26.3,16.4,30.30,South,180,0.4,1.3,66,0.00,,,0.00,WUHU216HW,2013-01-16 14:03:00,
2013-01-16 06:08:00,26.3,16.4,30.30,South,180,0.4,1.3,66,0.00,,,0.00,WUHU216HW,2013-01-16 14:08:00,
2013-01-16 06:13:00,26.1,16.2,30.30,SE,135,0.7,0.9,66,0.00,,,0.00,WUHU216HW,2013-01-16 14:13:00,
2013-01-16 06:18:00,25.9,16.0,30.30,SE,135,0.4,0.9,66,0.00,,,0.00,WUHU216HW,2013-01-16 14:18:00,
2013-01-16 06:23:00,25.7,15.8,30.31,SSE,158,0.9,1.1,66,0.00,,,0.00,WUHU216HW,2013-01-16 14:23:00,
2013-01-16 06:28:00,25.6,15.7,30.31,SE,135,0.4,1.1,66,0.00,,,0.00,WUHU216HW,2013-01-16 14:28:00,
2013-01-16 06:33:00,25.6,15.7,30.31,SSE,158,0.4,1.1,66,0.00,,,0.00,WUHU216HW,2013-01-16 14:33:00,
2013-01-16 06:38:00,25.4,15.8,30.32,SSW,203,1.3,1.8,67,0.00,,,0.00,WUHU216HW,2013-01-16 14:38:00,
2013-01-16 06:43:00,25.4,15.8,30.31,South,180,2.5,4.0,67,0.00,,,0.00,WUHU216HW,2013-01-16 14:43:00,
2013-01-16 06:48:00,25.2,15.7,30.31,SSE,158,1.3,4.0,67,0.00,,,0.00,WUHU216HW,2013-01-16 14:48:00,
2013-01-16 06:53:00,25.4,16.2,30.31,SSE,158,1.6,3.4,68,0.00,,,0.00,WUHU216HW,2013-01-16 14:53:00,
2013-01-16 06:58:00,25.4,16.2,30.31,South,180,1.3,4.0,68,0.00,,,0.00,WUHU216HW,2013-01-16 14:58:00,
2013-01-16 07:03:00,25.4,16.2,30.32,SSW,203,1.6,4.0,68,0.00,,,0.00,WUHU216HW,2013-01-16 15:03:00,
2013-01-16 07:08:00,25.6,16.4,30.32,SSE,158,0.9,3.4,68,0.00,,,0.00,WUHU216HW,2013-01-16 15:08:00,
2013-01-16 07:13:00,25.6,16.4,30.32,South,180,0.9,2.2,68,0.00,,,0.00,WUHU216HW,2013-01-16 15:13:00,
2013-01-16 07:18:00,25.7,16.6,30.32,South,180,0.9,1.6,68,0.00,,,0.00,WUHU216HW,2013-01-16 15:18:00,
2013-01-16 07:23:00,25.9,16.7,30.32,SSW,203,1.8,4.0,68,0.00,,,0.00,WUHU216HW,2013-01-16 15:23:00,
2013-01-16 07:28:00,26.1,16.6,30.32,South,180,1.8,4.0,67,0.00,,,0.00,WUHU216HW,2013-01-16 15:28:00,
2013-01-16 07:33:00,26.3,16.7,30.32,South,180,1.1,4.7,67,0.00,,,0.00,WUHU216HW,2013-01-16 15:33:00,
2013-01-16 07:38:00,26.6,17.1,30.32,SSW,203,2.0,4.7,67,0.00,,,0.00,WUHU216HW,2013-01-16 15:38:00,
2013-01-16 07:43:00,26.8,17.3,30.32,SSW,203,1.1,4.7,67,0.00,,,0.00,WUHU216HW,2013-01-16 15:43:00,
2013-01-16 07:48:00,27.2,17.6,30.32,SE,135,0.2,4.7,67,0.00,,,0.00,WUHU216HW,2013-01-16 15:48:00,
2013-01-16 07:53:00,27.7,17.8,30.32,SE,135,1.6,3.1,66,0.00,,,0.00,WUHU216HW,2013-01-16 15:53:00,
2013-01-16 07:58:00,28.4,18.2,30.33,ESE,113,0.9,1.8,65,0.00,,,0.00,WUHU216HW,2013-01-16 15:58:00,
2013-01-16 08:03:00,29.3,19.0,30.33,ESE,113,0.9,4.0,65,0.00,,,0.00,WUHU216HW,2013-01-16 16:03:00,
2013-01-16 08:08:00,29.9,19.1,30.33,South,180,1.1,4.0,64,0.00,,,0.00,WUHU216HW,2013-01-16 16:08:00,
2013-01-16 08:13:00,30.2,19.1,30.33,SE,135,0.7,3.1,63,0.00,,,0.00,WUHU216HW,2013-01-16 16:13:00,
2013-01-16 08:18:00,30.6,19.4,30.33,East,90,0.4,3.1,63,0.00,,,0.00,WUHU216HW,2013-01-16 16:18:00,
2013-01-16 08:23:00,31.3,19.8,30.33,SSE,158,1.8,3.4,62,0.00,,,0.00,WUHU216HW,2013-01-16 16:23:00,
2013-01-16 08:28:00,32.0,20.2,30.33,ESE,113,2.9,4.0,61,0.00,,,0.00,WUHU216HW,2013-01-16 16:28:00,
2013-01-16 08:33:00,32.9,20.2,30.33,ESE,113,2.2,4.0,59,0.00,,,0.00,WUHU216HW,2013-01-16 16:33:00,
2013-01-16 08:38:00,33.5,20.3,30.33,SSE,158,1.1,3.1,58,0.00,,,0.00,WUHU216HW,2013-01-16 16:38:00,
2013-01-16 08:43:00,33.8,20.5,30.33,East,90,1.8,3.4,58,0.00,,,0.00,WUHU216HW,2013-01-16 16:43:00,
2013-01-16 08:48:00,34.4,20.7,30.33,ESE,113,1.8,4.7,57,0.00,,,0.00,WUHU216HW,2013-01-16 16:48:00,
2013-01-16 08:53:00,34.9,20.8,30.34,ESE,113,1.8,4.7,56,0.00,,,0.00,WUHU216HW,2013-01-16 16:53:00,
2013-01-16 08:58:00,35.6,21.1,30.34,ENE,68,4.0,6.9,55,0.00,,,0.00,WUHU216HW,2013-01-16 16:58:00,
2013-01-16 09:03:00,36.0,21.0,30.34,East,90,4.9,7.2,54,0.00,,,0.00,WUHU216HW,2013-01-16 17:03:00,
2013-01-16 09:08:00,36.4,20.9,30.34,East,90,7.6,7.6,53,0.00,,,0.00,WUHU216HW,2013-01-16 17:08:00,
2013-01-16 09:13:00,36.5,21.0,30.34,East,90,4.0,7.6,53,0.00,,,0.00,WUHU216HW,2013-01-16 17:13:00,
2013-01-16 09:18:00,36.7,20.7,30.33,SE,135,1.3,7.6,52,0.00,,,0.00,WUHU216HW,2013-01-16 17:18:00,
2013-01-16 09:23:00,36.9,20.4,30.33,ESE,113,2.2,4.0,51,0.00,,,0.00,WUHU216HW,2013-01-16 17:23:00,
2013-01-16 09:28:00,37.3,21.3,30.33,WSW,248,1.1,3.4,52,0.00,,,0.00,WUHU216HW,2013-01-16 17:28:00,
2013-01-16 09:33:00,37.6,21.2,30.33,ESE,113,1.8,2.7,51,0.00,,,0.00,WUHU216HW,2013-01-16 17:33:00,
2013-01-16 09:38:00,38.2,21.2,30.33,SE,135,1.6,4.5,50,0.00,,,0.00,WUHU216HW,2013-01-16 17:38:00,
2013-01-16 09:43:00,38.5,21.5,30.33,ESE,113,3.1,4.5,50,0.00,,,0.00,WUHU216HW,2013-01-16 17:43:00,
2013-01-16 09:48:00,39.1,21.0,30.33,East,90,4.0,5.1,48,0.00,,,0.00,WUHU216HW,2013-01-16 17:48:00,
2013-01-16 09:53:00,39.4,20.7,30.33,East,90,4.7,6.9,47,0.00,,,0.00,WUHU216HW,2013-01-16 17:53:00,
2013-01-16 09:58:00,40.0,21.8,30.32,SSW,203,1.6,6.9,48,0.00,,,0.00,WUHU216HW,2013-01-16 17:58:00,
2013-01-16 10:03:00,40.0,21.8,30.32,ESE,113,2.0,4.7,48,0.00,,,0.00,WUHU216HW,2013-01-16 18:03:00,
2013-01-16 10:08:00,40.5,21.2,30.33,East,90,3.8,4.7,46,0.00,,,0.00,WUHU216HW,2013-01-16 18:08:00,
2013-01-16 10:13:00,40.9,21.5,30.33,ESE,113,2.7,6.3,46,0.00,,,0.00,WUHU216HW,2013-01-16 18:13:00,
2013-01-16 10:18:00,41.4,21.0,30.33,East,90,2.5,6.3,44,0.00,,,0.00,WUHU216HW,2013-01-16 18:18:00,
2013-01-16 10:23:00,41.8,21.3,30.33,ESE,113,3.1,5.4,44,0.00,,,0.00,WUHU216HW,2013-01-16 18:23:00,
2013-01-16 10:28:00,42.1,21.2,30.32,ENE,68,4.0,6.0,43,0.00,,,0.00,WUHU216HW,2013-01-16 18:28:00,
2013-01-16 10:33:00,42.3,21.2,30.32,ESE,113,4.5,6.7,43,0.00,,,0.00,WUHU216HW,2013-01-16 18:33:00,
2013-01-16 10:38:00,42.7,21.1,30.32,ESE,113,4.9,6.7,42,0.00,,,0.00,WUHU216HW,2013-01-16 18:38:00,
2013-01-16 10:43:00,42.8,21.2,30.32,ESE,113,2.9,5.1,42,0.00,,,0.00,WUHU216HW,2013-01-16 18:43:00,
2013-01-16 10:48:00,43.0,20.4,30.32,NE,45,4.9,6.3,40,0.00,,,0.00,WUHU216HW,2013-01-16 18:48:00,
2013-01-16 10:53:00,43.4,20.6,30.32,East,90,2.9,6.9,40,0.00,,,0.00,WUHU216HW,2013-01-16 18:53:00,
2013-01-16 10:58:00,43.4,21.2,30.31,East,90,4.7,6.9,41,0.00,,,0.00,WUHU216HW,2013-01-16 18:58:00,
2013-01-16 11:03:00,43.6,21.9,30.31,ENE,68,0.7,6.7,42,0.00,,,0.00,WUHU216HW,2013-01-16 19:03:00,
2013-01-16 11:08:00,43.6,21.9,30.31,East,90,4.7,4.7,42,0.00,,,0.00,WUHU216HW,2013-01-16 19:08:00,
2013-01-16 11:13:00,43.7,21.0,30.31,ESE,113,4.3,9.2,40,0.00,,,0.00,WUHU216HW,2013-01-16 19:13:00,
2013-01-16 11:18:00,43.9,21.7,30.30,ESE,113,4.7,9.2,41,0.00,,,0.00,WUHU216HW,2013-01-16 19:18:00,
2013-01-16 11:23:00,43.9,21.2,30.30,East,90,2.7,6.9,40,0.00,,,0.00,WUHU216HW,2013-01-16 19:23:00,
2013-01-16 11:28:00,44.3,21.4,30.29,ESE,113,4.0,6.3,40,0.00,,,0.00,WUHU216HW,2013-01-16 19:28:00,
2013-01-16 11:33:00,44.6,21.8,30.29,ESE,113,4.9,6.3,40,0.00,,,0.00,WUHU216HW,2013-01-16 19:33:00,
2013-01-16 11:38:00,44.8,22.0,30.29,SE,135,2.5,7.8,40,0.00,,,0.00,WUHU216HW,2013-01-16 19:38:00,
2013-01-16 11:43:00,45.0,21.4,30.29,ESE,113,1.8,7.8,39,0.00,,,0.00,WUHU216HW,2013-01-16 19:43:00,
2013-01-16 11:48:00,45.4,21.1,30.29,ESE,113,5.4,7.4,38,0.00,,,0.00,WUHU216HW,2013-01-16 19:48:00,
2013-01-16 11:53:00,45.2,21.0,30.29,East,90,6.3,7.4,38,0.00,,,0.00,WUHU216HW,2013-01-16 19:53:00,
2013-01-16 11:58:00,45.0,20.8,30.29,ENE,68,1.8,7.8,38,0.00,,,0.00,WUHU216HW,2013-01-16 19:58:00,
2013-01-16 12:03:00,45.2,21.0,30.29,ESE,113,4.0,7.8,38,0.00,,,0.00,WUHU216HW,2013-01-16 20:03:00,
2013-01-16 12:08:00,45.4,21.1,30.28,East,90,4.0,6.5,38,0.00,,,0.00,WUHU216HW,2013-01-16 20:08:00,
2013-01-16 12:13:00,45.2,21.0,30.28,ENE,68,2.0,7.4,38,0.00,,,0.00,WUHU216HW,2013-01-16 20:13:00,
2013-01-16 12:18:00,45.4,21.8,30.28,SE,135,2.2,7.4,39,0.00,,,0.00,WUHU216HW,2013-01-16 20:18:00,
2013-01-16 12:23:00,45.5,20.6,30.28,East,90,4.7,5.6,37,0.00,,,0.00,WUHU216HW,2013-01-16 20:23:00,
2013-01-16 12:28:00,45.4,20.4,30.28,ESE,113,6.3,8.7,37,0.01,,,0.01,WUHU216HW,2013-01-16 20:28:00,
2013-01-16 12:33:00,45.2,20.3,30.28,East,90,1.8,8.7,37,0.01,,,0.01,WUHU216HW,2013-01-16 20:33:00,
2013-01-16 12:38:00,45.0,20.8,30.28,ESE,113,4.0,8.7,38,0.01,,,0.01,WUHU216HW,2013-01-16 20:38:00,
2013-01-16 12:43:00,45.2,21.0,30.28,SE,135,2.7,6.7,38,0.01,,,0.01,WUHU216HW,2013-01-16 20:43:00,
2013-01-16 12:48:00,45.4,21.1,30.28,ESE,113,3.6,9.6,38,0.01,,,0.01,WUHU216HW,2013-01-16 20:48:00,
2013-01-16 12:53:00,45.4,20.4,30.28,East,90,8.3,9.6,37,0.01,,,0.01,WUHU216HW,2013-01-16 20:53:00,
2013-01-16 12:58:00,45.4,20.4,30.27,SE,135,5.4,8.9,37,0.01,,,0.01,WUHU216HW,2013-01-16 20:58:00,
2013-01-16 13:03:00,45.5,20.6,30.27,East,90,3.6,8.3,37,0.02,,,0.02,WUHU216HW,2013-01-16 21:03:00,
2013-01-16 13:08:00,45.9,20.9,30.27,ESE,113,2.7,6.9,37,0.02,,,0.02,WUHU216HW,2013-01-16 21:08:00,
2013-01-16 13:13:00,46.1,20.4,30.27,ESE,113,4.0,6.9,36,0.02,,,0.02,WUHU216HW,2013-01-16 21:13:00,
2013-01-16 13:18:00,46.1,20.4,30.26,ESE,113,2.2,5.8,36,0.02,,,0.02,WUHU216HW,2013-01-16 21:18:00,
2013-01-16 13:23:00,46.1,20.4,30.26,SE,135,1.6,7.6,36,0.03,,,0.03,WUHU216HW,2013-01-16 21:23:00,
2013-01-16 13:28:00,46.1,19.7,30.26,ENE,68,6.3,7.6,35,0.02,,,0.03,WUHU216HW,2013-01-16 21:28:00,
2013-01-16 13:33:00,46.1,20.4,30.26,SSE,158,1.1,8.7,36,0.02,,,0.03,WUHU216HW,2013-01-16 21:33:00,
2013-01-16 13:38:00,46.1,19.7,30.26,East,90,1.8,8.7,35,0.02,,,0.03,WUHU216HW,2013-01-16 21:38:00,
2013-01-16 13:43:00,46.1,19.7,30.26,SSW,203,3.4,5.1,35,0.02,,,0.03,WUHU216HW,2013-01-16 21:43:00,
2013-01-16 13:48:00,46.1,19.1,30.26,East,90,3.1,5.1,34,0.02,,,0.03,WUHU216HW,2013-01-16 21:48:00,
2013-01-16 13:53:00,45.7,18.1,30.26,ESE,113,4.7,7.8,33,0.02,,,0.03,WUHU216HW,2013-01-16 21:53:00,
2013-01-16 13:58:00,45.7,19.5,30.26,ESE,113,4.5,8.3,35,0.01,,,0.03,WUHU216HW,2013-01-16 21:58:00,
2013-01-16 14:03:00,45.7,18.1,30.26,East,90,4.0,10.5,33,0.02,,,0.04,WUHU216HW,2013-01-16 22:03:00,
2013-01-16 14:08:00,45.4,17.7,30.26,ESE,113,4.5,10.5,33,0.02,,,0.04,WUHU216HW,2013-01-16 22:08:00,
2013-01-16 14:13:00,45.4,17.7,30.26,East,90,4.9,8.5,33,0.02,,,0.04,WUHU216HW,2013-01-16 22:13:00,
2013-01-16 14:18:00,45.2,17.7,30.26,East,90,6.9,9.6,33,0.02,,,0.04,WUHU216HW,2013-01-16 22:18:00,
2013-01-16 14:23:00,45.0,17.5,30.26,East,90,4.0,9.6,33,0.01,,,0.04,WUHU216HW,2013-01-16 22:23:00,
2013-01-16 14:28:00,45.0,18.8,30.26,SE,135,2.0,8.5,35,0.01,,,0.04,WUHU216HW,2013-01-16 22:28:00,
2013-01-16 14:33:00,44.8,17.3,30.26,ESE,113,6.7,9.2,33,0.01,,,0.04,WUHU216HW,2013-01-16 22:33:00,
2013-01-16 14:38:00,44.5,16.9,30.26,SSE,158,2.0,9.2,33,0.01,,,0.04,WUHU216HW,2013-01-16 22:38:00,
2013-01-16 14:43:00,44.5,18.3,30.26,SSE,158,1.3,6.3,35,0.01,,,0.04,WUHU216HW,2013-01-16 22:43:00,
2013-01-16 14:48:00,44.3,18.1,30.26,SE,135,4.7,5.8,35,0.01,,,0.04,WUHU216HW,2013-01-16 22:48:00,
2013-01-16 14:53:00,44.3,18.1,30.26,SE,135,1.6,5.8,35,0.01,,,0.04,WUHU216HW,2013-01-16 22:53:00,
2013-01-16 14:58:00,44.1,18.0,30.26,ESE,113,4.7,4.7,35,0.01,,,0.05,WUHU216HW,2013-01-16 22:58:00,
2013-01-16 15:03:00,43.9,17.1,30.26,SE,135,1.8,5.4,34,0.01,,,0.05,WUHU216HW,2013-01-16 23:03:00,
2013-01-16 15:08:00,43.7,17.6,30.26,ESE,113,1.3,7.6,35,0.01,,,0.05,WUHU216HW,2013-01-16 23:08:00,
2013-01-16 15:13:00,43.6,17.5,30.26,SE,135,1.8,7.6,35,0.01,,,0.05,WUHU216HW,2013-01-16 23:13:00,
2013-01-16 15:18:00,43.6,17.5,30.26,SE,135,1.3,3.8,35,0.01,,,0.05,WUHU216HW,2013-01-16 23:18:00,
2013-01-16 15:23:00,43.6,17.5,30.26,ESE,113,4.5,4.5,35,0.01,,,0.05,WUHU216HW,2013-01-16 23:23:00,
2013-01-16 15:28:00,43.6,17.5,30.26,South,180,2.5,4.9,35,0.01,,,0.05,WUHU216HW,2013-01-16 23:28:00,
2013-01-16 15:33:00,43.4,17.3,30.27,ESE,113,2.2,4.9,35,0.01,,,0.05,WUHU216HW,2013-01-16 23:33:00,
2013-01-16 15:38:00,43.2,17.2,30.27,SE,135,3.1,4.7,35,0.01,,,0.05,WUHU216HW,2013-01-16 23:38:00,
2013-01-16 15:43:00,43.2,17.2,30.27,SE,135,2.5,5.8,35,0.01,,,0.05,WUHU216HW,2013-01-16 23:43:00,
2013-01-16 15:48:00,43.0,17.0,30.27,ESE,113,2.9,5.8,35,0.01,,,0.05,WUHU216HW,2013-01-16 23:48:00,
2013-01-16 15:53:00,42.8,16.2,30.27,ESE,113,2.5,5.1,34,0.01,,,0.05,WUHU216HW,2013-01-16 23:53:00,
2013-01-16 15:58:00,42.8,16.8,30.27,SE,135,2.0,5.1,35,0.00,,,0.05,WUHU216HW,2013-01-16 23:58:00,
2013-01-16 16:03:00,42.5,16.6,30.27,ESE,113,1.8,4.5,35,0.00,,,0.05,WUHU216HW,2013-01-17 00:03:00,
2013-01-16 16:08:00,42.1,16.9,30.27,SE,135,2.2,3.8,36,0.00,,,0.05,WUHU216HW,2013-01-17 00:08:00,
2013-01-16 16:13:00,41.9,16.8,30.27,SSE,158,1.8,4.7,36,0.00,,,0.05,WUHU216HW,2013-01-17 00:13:00,
2013-01-16 16:18:00,41.6,17.1,30.27,SE,135,3.1,4.7,37,0.01,,,0.06,WUHU216HW,2013-01-17 00:18:00,
2013-01-16 16:23:00,41.2,16.7,30.27,SSE,158,1.8,3.4,37,0.01,,,0.06,WUHU216HW,2013-01-17 00:23:00,
2013-01-16 16:28:00,40.9,16.5,30.27,SE,135,1.6,3.4,37,0.01,,,0.06,WUHU216HW,2013-01-17 00:28:00,
2013-01-16 16:33:00,40.7,16.3,30.28,SE,135,0.9,2.7,37,0.01,,,0.06,WUHU216HW,2013-01-17 00:33:00,
2013-01-16 16:38:00,40.1,16.5,30.28,SE,135,1.6,2.9,38,0.01,,,0.06,WUHU216HW,2013-01-17 00:38:00,
2013-01-16 16:43:00,40.0,16.3,30.28,SE,135,1.1,2.9,38,0.01,,,0.06,WUHU216HW,2013-01-17 00:43:00,
2013-01-16 16:48:00,39.6,15.9,30.28,SE,135,1.1,2.5,38,0.01,,,0.06,WUHU216HW,2013-01-17 00:48:00,
2013-01-16 16:53:00,39.2,15.7,30.28,SE,135,1.1,2.2,38,0.01,,,0.06,WUHU216HW,2013-01-17 00:53:00,
2013-01-16 16:58:00,38.9,15.9,30.28,SSE,158,0.7,2.2,39,0.01,,,0.06,WUHU216HW,2013-01-17 00:58:00,
2013-01-16 17:03:00,38.5,15.7,30.28,SSE,158,1.6,1.8,39,0.01,,,0.06,WUHU216HW,2013-01-17 01:03:00,
2013-01-16 17:08:00,38.3,15.5,30.28,SSE,158,1.3,1.8,39,0.01,,,0.06,WUHU216HW,2013-01-17 01:08:00,
2013-01-16 17:13:00,38.0,15.1,30.28,SSE,158,1.3,1.8,39,0.00,,,0.06,WUHU216HW,2013-01-17 01:13:00,
2013-01-16 17:18:00,37.6,14.9,30.28,SE,135,1.8,1.8,39,0.00,,,0.06,WUHU216HW,2013-01-17 01:18:00,
2013-01-16 17:23:00,37.4,14.7,30.28,SSE,158,1.3,3.8,39,0.00,,,0.06,WUHU216HW,2013-01-17 01:23:00,
2013-01-16 17:28:00,37.1,14.3,30.28,SSE,158,1.8,3.8,39,0.00,,,0.06,WUHU216HW,2013-01-17 01:28:00,
2013-01-16 17:33:00,37.1,14.9,30.28,South,180,0.7,3.1,40,0.00,,,0.06,WUHU216HW,2013-01-17 01:33:00,
2013-01-16 17:38:00,36.7,14.7,30.28,SW,225,2.7,4.3,40,0.00,,,0.06,WUHU216HW,2013-01-17 01:38:00,
2013-01-16 17:43:00,36.5,14.5,30.28,South,180,4.9,4.9,40,0.00,,,0.06,WUHU216HW,2013-01-17 01:43:00,
2013-01-16 17:48:00,36.4,14.3,30.29,SSE,158,2.0,4.9,40,0.00,,,0.06,WUHU216HW,2013-01-17 01:48:00,
2013-01-16 17:53:00,36.4,13.7,30.29,SSE,158,1.1,4.5,39,0.00,,,0.06,WUHU216HW,2013-01-17 01:53:00,
2013-01-16 17:58:00,36.4,13.7,30.29,SSW,203,0.9,3.4,39,0.00,,,0.06,WUHU216HW,2013-01-17 01:58:00,
2013-01-16 18:03:00,36.2,13.5,30.29,SSE,158,1.3,4.0,39,0.00,,,0.06,WUHU216HW,2013-01-17 02:03:00,
2013-01-16 18:08:00,36.0,13.3,30.29,SE,135,1.1,5.1,39,0.00,,,0.06,WUHU216HW,2013-01-17 02:08:00,
2013-01-16 18:13:00,36.0,13.3,30.30,SSW,203,1.3,5.1,39,0.00,,,0.06,WUHU216HW,2013-01-17 02:13:00,
2013-01-16 18:18:00,36.0,13.3,30.30,SSE,158,1.8,6.9,39,0.00,,,0.06,WUHU216HW,2013-01-17 02:18:00,
2013-01-16 18:23:00,36.2,12.9,30.30,SSE,158,0.7,6.9,38,0.00,,,0.06,WUHU216HW,2013-01-17 02:23:00,
2013-01-16 18:28:00,36.2,12.9,30.30,SSE,158,3.1,4.7,38,0.00,,,0.06,WUHU216HW,2013-01-17 02:28:00,
2013-01-16 18:33:00,36.2,12.9,30.30,SSE,158,1.8,4.7,38,0.00,,,0.06,WUHU216HW,2013-01-17 02:33:00,
2013-01-16 18:38:00,36.2,12.9,30.30,SSE,158,0.7,3.1,38,0.00,,,0.06,WUHU216HW,2013-01-17 02:38:00,
2013-01-16 18:43:00,36.0,12.7,30.30,SE,135,0.4,2.7,38,0.00,,,0.06,WUHU216HW,2013-01-17 02:43:00,
2013-01-16 18:48:00,35.6,12.4,30.30,SSE,158,2.2,2.7,38,0.00,,,0.06,WUHU216HW,2013-01-17 02:48:00,
2013-01-16 18:53:00,35.6,12.4,30.30,SSE,158,1.1,2.7,38,0.00,,,0.06,WUHU216HW,2013-01-17 02:53:00,
2013-01-16 18:58:00,35.5,12.3,30.30,SSE,158,0.9,2.0,38,0.00,,,0.06,WUHU216HW,2013-01-17 02:58:00,
2013-01-16 19:03:00,35.1,12.5,30.30,SSE,158,4.9,5.8,39,0.00,,,0.06,WUHU216HW,2013-01-17 03:03:00,
2013-01-16 19:08:00,35.1,11.9,30.30,SE,135,1.3,5.8,38,0.00,,,0.06,WUHU216HW,2013-01-17 03:08:00,
2013-01-16 19:13:00,35.1,11.9,30.30,South,180,1.1,4.9,38,0.00,,,0.06,WUHU216HW,2013-01-17 03:13:00,
2013-01-16 19:18:00,35.1,11.9,30.30,South,180,1.8,4.0,38,0.00,,,0.06,WUHU216HW,2013-01-17 03:18:00,
2013-01-16 19:23:00,35.1,11.9,30.30,SSE,158,1.3,4.0,38,0.00,,,0.06,WUHU216HW,2013-01-17 03:23:00,
2013-01-16 19:28:00,35.3,11.4,30.30,South,180,1.8,5.8,37,0.00,,,0.06,WUHU216HW,2013-01-17 03:28:00,
2013-01-16 19:33:00,35.3,11.4,30.30,SSW,203,1.1,5.8,37,0.00,,,0.06,WUHU216HW,2013-01-17 03:33:00,
2013-01-16 19:38:00,35.3,11.4,30.30,SSE,158,2.2,4.9,37,0.00,,,0.06,WUHU216HW,2013-01-17 03:38:00,
2013-01-16 19:43:00,35.3,11.4,30.30,SSE,158,1.1,3.6,37,0.00,,,0.06,WUHU216HW,2013-01-17 03:43:00,
2013-01-16 19:48:00,35.3,12.1,30.30,SSW,203,1.8,3.4,38,0.00,,,0.06,WUHU216HW,2013-01-17 03:48:00,
2013-01-16 19:53:00,35.1,11.3,30.30,South,180,1.1,4.7,37,0.00,,,0.06,WUHU216HW,2013-01-17 03:53:00,
2013-01-16 19:58:00,35.1,11.3,30.31,SSE,158,0.7,4.7,37,0.00,,,0.06,WUHU216HW,2013-01-17 03:58:00,
2013-01-16 20:03:00,35.1,11.3,30.31,SE,135,1.8,4.3,37,0.00,,,0.06,WUHU216HW,2013-01-17 04:03:00,
2013-01-16 20:08:00,34.9,11.8,30.31,SSE,158,1.1,4.3,38,0.00,,,0.06,WUHU216HW,2013-01-17 04:08:00,
2013-01-16 20:13:00,34.7,11.6,30.30,South,180,2.0,2.9,38,0.00,,,0.06,WUHU216HW,2013-01-17 04:13:00,
2013-01-16 20:18:00,34.7,11.0,30.30,SE,135,1.8,4.0,37,0.00,,,0.06,WUHU216HW,2013-01-17 04:18:00,
2013-01-16 20:23:00,34.7,11.0,30.30,South,180,1.3,4.0,37,0.00,,,0.06,WUHU216HW,2013-01-17 04:23:00,
2013-01-16 20:28:00,34.7,11.0,30.30,ESE,113,2.0,2.7,37,0.00,,,0.06,WUHU216HW,2013-01-17 04:28:00,
2013-01-16 20:33:00,34.7,11.0,30.30,SSE,158,0.9,2.7,37,0.00,,,0.06,WUHU216HW,2013-01-17 04:33:00,
2013-01-16 20:38:00,34.6,10.8,30.30,SSE,158,1.8,4.3,37,0.00,,,0.06,WUHU216HW,2013-01-17 04:38:00,
2013-01-16 20:43:00,34.7,11.0,30.30,SSE,158,1.8,4.3,37,0.00,,,0.06,WUHU216HW,2013-01-17 04:43:00,
2013-01-16 20:48:00,34.6,10.8,30.30,SSE,158,1.3,2.2,37,0.00,,,0.06,WUHU216HW,2013-01-17 04:48:00,
2013-01-16 20:53:00,34.6,10.8,30.30,SE,135,0.4,2.5,37,0.00,,,0.06,WUHU216HW,2013-01-17 04:53:00,
2013-01-16 20:58:00,34.6,10.8,30.29,SSE,158,1.3,3.4,37,0.00,,,0.06,WUHU216HW,2013-01-17 04:58:00,
2013-01-16 21:00:00,34.4,10.6,30.29,SE,135,1.8,3.4,37,0.00,,,0.06,WUHU216HW,2013-01-17 05:00:00,
2013-01-16 21:01:00,34.4,10.6,30.29,South,180,2.2,3.6,37,0.00,,,0.06,WUHU216HW,2013-01-17 05:01:00,
2013-01-16 21:03:00,34.4,10.0,30.29,SE,135,1.6,3.6,36,0.00,,,0.06,WUHU216HW,2013-01-17 05:03:00,
2013-01-16 21:08:00,34.4,10.6,30.29,South,180,2.7,3.8,37,0.00,,,0.06,WUHU216HW,2013-01-17 05:08:00,
2013-01-16 21:13:00,34.2,10.4,30.29,SE,135,1.1,3.8,37,0.00,,,0.06,WUHU216HW,2013-01-17 05:13:00,
2013-01-16 21:18:00,34.2,10.4,30.29,SSE,158,2.9,4.0,37,0.00,,,0.06,WUHU216HW,2013-01-17 05:18:00,
2013-01-16 21:23:00,34.2,10.4,30.29,SSE,158,1.8,4.0,37,0.00,,,0.06,WUHU216HW,2013-01-17 05:23:00,
2013-01-16 21:28:00,34.2,10.4,30.29,SSW,203,1.8,3.4,37,0.00,,,0.06,WUHU216HW,2013-01-17 05:28:00,
2013-01-16 21:33:00,34.2,10.4,30.29,SSE,158,1.1,3.6,37,0.00,,,0.06,WUHU216HW,2013-01-17 05:33:00,
2013-01-16 21:38:00,34.2,10.4,30.29,ESE,113,1.8,3.6,37,0.00,,,0.06,WUHU216HW,2013-01-17 05:38:00,
2013-01-16 21:43:00,34.2,10.4,30.29,SE,135,1.1,2.2,37,0.00,,,0.06,WUHU216HW,2013-01-17 05:43:00,
2013-01-16 21:48:00,34.2,10.4,30.29,SE,135,1.6,2.5,37,0.00,,,0.06,WUHU216HW,2013-01-17 05:48:00,
2013-01-16 21:53:00,34.2,10.4,30.29,SSE,158,1.6,2.5,37,0.00,,,0.06,WUHU216HW,2013-01-17 05:53:00,
2013-01-16 21:58:00,34.0,10.4,30.29,South,180,1.6,1.8,37,0.00,,,0.06,WUHU216HW,2013-01-17 05:58:00,
2013-01-16 22:03:00,34.0,11.0,30.29,SSE,158,0.7,1.8,38,0.00,,,0.06,WUHU216HW,2013-01-17 06:03:00,
2013-01-16 22:08:00,33.8,10.2,30.29,SE,135,1.3,2.0,37,0.00,,,0.06,WUHU216HW,2013-01-17 06:08:00,
2013-01-16 22:13:00,33.8,10.2,30.29,South,180,1.1,2.5,37,0.00,,,0.06,WUHU216HW,2013-01-17 06:13:00,
2013-01-16 22:18:00,33.8,10.2,30.29,SE,135,1.6,2.5,37,0.00,,,0.06,WUHU216HW,2013-01-17 06:18:00,
2013-01-16 22:23:00,33.8,10.2,30.29,SSE,158,1.3,2.2,37,0.00,,,0.06,WUHU216HW,2013-01-17 06:23:00,
2013-01-16 22:28:00,33.8,10.2,30.29,SE,135,1.8,1.8,37,0.00,,,0.06,WUHU216HW,2013-01-17 06:28:00,
2013-01-16 22:33:00,33.8,10.2,30.29,SSE,158,1.8,1.8,37,0.00,,,0.06,WUHU216HW,2013-01-17 06:33:00,
2013-01-16 22:38:00,33.8,10.2,30.29,SSE,158,1.1,2.2,37,0.00,,,0.06,WUHU216HW,2013-01-17 06:38:00,
2013-01-16 22:43:00,34.0,9.7,30.29,SE,135,1.1,3.4,36,0.00,,,0.06,WUHU216HW,2013-01-17 06:43:00,
2013-01-16 22:48:00,34.0,9.7,30.28,SSE,158,1.1,3.4,36,0.00,,,0.06,WUHU216HW,2013-01-17 06:48:00,
2013-01-16 22:53:00,33.8,9.5,30.28,SSE,158,1.1,3.1,36,0.00,,,0.06,WUHU216HW,2013-01-17 06:53:00,
2013-01-16 22:58:00,33.8,8.9,30.29,SE,135,1.1,3.1,35,0.00,,,0.06,WUHU216HW,2013-01-17 06:58:00,
2013-01-16 23:03:00,33.8,8.9,30.28,SSE,158,2.5,2.5,35,0.00,,,0.06,WUHU216HW,2013-01-17 07:03:00,
2013-01-16 23:08:00,34.0,9.1,30.28,SE,135,1.6,4.7,35,0.00,,,0.06,WUHU216HW,2013-01-17 07:08:00,
2013-01-16 23:13:00,34.2,9.2,30.28,South,180,1.8,4.7,35,0.00,,,0.06,WUHU216HW,2013-01-17 07:13:00,
2013-01-16 23:18:00,34.2,9.2,30.28,SE,135,2.7,4.0,35,0.00,,,0.06,WUHU216HW,2013-01-17 07:18:00,
2013-01-16 23:23:00,34.2,9.2,30.29,ESE,113,1.1,4.0,35,0.00,,,0.06,WUHU216HW,2013-01-17 07:23:00,
2013-01-16 23:28:00,34.2,8.6,30.29,SSE,158,1.6,4.0,34,0.00,,,0.06,WUHU216HW,2013-01-17 07:28:00,
2013-01-16 23:33:00,34.2,9.2,30.28,SE,135,0.7,4.0,35,0.00,,,0.06,WUHU216HW,2013-01-17 07:33:00,
2013-01-16 23:38:00,33.8,8.9,30.29,SSE,158,0.9,3.1,35,0.00,,,0.06,WUHU216HW,2013-01-17 07:38:00,
2013-01-16 23:43:00,33.7,8.7,30.28,SSE,158,1.3,3.1,35,0.00,,,0.06,WUHU216HW,2013-01-17 07:43:00,
2013-01-16 23:48:00,33.5,8.6,30.28,SSE,158,0.9,1.8,35,0.00,,,0.06,WUHU216HW,2013-01-17 07:48:00,
2013-01-16 23:53:00,33.3,8.5,30.28,SE,135,1.1,2.0,35,0.00,,,0.06,WUHU216HW,2013-01-17 07:53:00,
2013-01-16 23:58:00,33.1,8.3,30.28,SE,135,0.4,2.0,35,0.00,,,0.06,WUHU216HW,2013-01-17 07:58:00,